Weather History for KLEX - March, 2015

Change the Weather History Date:

Tuesday, March 31, 2015

  Actual Average Record
Temperature  
Mean Temperature 58 °F 50 °F  
Max Temperature 74 °F 61 °F 82 °F (1981)
Min Temperature 42 °F 40 °F 14 °F (1923)
Degree Days  
Heating Degree Days 7 15  
Month to date heating degree days 649 606  
Since 1 July heating degree days 4627 4176  
Cooling Degree Days 0 0  
Month to date cooling degree days 0 2  
Year to date cooling degree days 0 2  
Growing Degree Days 8 (Base 50)    
Moisture  
Dew Point 33 °F    
Average Humidity 40    
Maximum Humidity 57    
Minimum Humidity 22    
Precipitation  
Precipitation 0.00 in 0.13 in 2.87 in (1908)
Month to date precipitation 7.46 4.07  
Year to date precipitation 12.31 10.47  
Snow  
Snow 0.00 in 0.00 in 1.60 in (1987)
Month to date snowfall 17.1 1.4  
Since 1 July snowfall 40.0 12.7  
Snow Depth 0.00 in    
Sea Level Pressure  
Sea Level Pressure 29.91 in    
Wind  
Wind Speed 14 mph (WSW)    
Max Wind Speed 26 mph    
Max Gust Speed 35 mph    
Visibility 10 miles    
Events      
T = Trace of Precipitation, MM = Missing Value Source: NWS Daily Summary

Daily Weather History Graph

Daily Weather History Graph

Search for Another Location

Airport or City:

Trip Planner

Search our weather history database for the weather conditions in past years. The results will help you decide how hot, cold, wet, or windy it might be!

Date:

Astronomy

Mar. 31, 2015 Rise Set
Actual Time 7:25 AM EDT 8:00 PM EDT
Civil Twilight 6:58 AM EDT 8:26 PM EDT
Nautical Twilight 6:27 AM EDT 8:58 PM EDT
Astronomical Twilight 5:55 AM EDT 9:30 PM EDT
Moon 4:46 PM EDT (3/31) 5:20 AM EDT (3/31)
Length of Visible Light 13h 27m
Length of Day
12h 34m
Waxing Gibbous, 87% of the Moon is Illuminated
Mar 31
Waxing Gibbous
Apr 4
Full
Apr 11
Last Quarter
Apr 18
New
Apr 25
First Quarter

Hourly Weather History & Observations

Time (EDT) Temp. Windchill Dew Point Humidity Pressure Visibility Wind Dir Wind Speed Gust Speed Precip Events Conditions
12:54 AM 46.0 °F 41.9 °F 28.9 °F 51% 30.06 in 10.0 mi SSW 8.1 mph - N/A   Clear
1:54 AM 45.0 °F 40.6 °F 28.0 °F 52% 30.04 in 10.0 mi South 8.1 mph - N/A   Clear
2:54 AM 43.0 °F 38.2 °F 28.0 °F 56% 30.01 in 10.0 mi South 8.1 mph - N/A   Clear
3:54 AM 44.1 °F 39.0 °F 28.9 °F 55% 29.97 in 10.0 mi South 9.2 mph - N/A   Overcast
4:54 AM 42.1 °F 37.7 °F 28.9 °F 60% 29.95 in 10.0 mi South 6.9 mph - N/A   Clear
5:54 AM 43.0 °F 36.8 °F 28.9 °F 58% 29.94 in 10.0 mi South 11.5 mph - N/A   Clear
6:54 AM 44.1 °F 37.7 °F 28.9 °F 55% 29.92 in 10.0 mi SSW 12.7 mph - N/A   Clear
7:54 AM 46.0 °F 40.2 °F 28.9 °F 51% 29.92 in 10.0 mi SSW 12.7 mph - N/A   Clear
8:54 AM 51.1 °F - 30.0 °F 44% 29.91 in 10.0 mi SSW 13.8 mph - N/A   Clear
9:54 AM 57.9 °F - 34.0 °F 41% 29.89 in 10.0 mi SW 19.6 mph - N/A   Clear
10:54 AM 62.1 °F - 37.9 °F 41% 29.87 in 10.0 mi SW 19.6 mph 31.1 mph N/A   Clear
11:54 AM 66.0 °F - 39.0 °F 37% 29.86 in 10.0 mi West 19.6 mph 25.3 mph N/A   Clear
12:54 PM 69.1 °F - 39.9 °F 35% 29.83 in 10.0 mi West 16.1 mph 27.6 mph N/A   Clear
1:54 PM 72.0 °F - 39.9 °F 31% 29.83 in 10.0 mi WSW 19.6 mph 26.5 mph N/A   Clear
2:54 PM 72.0 °F - 37.9 °F 29% 29.83 in 10.0 mi WNW 23.0 mph 29.9 mph N/A   Clear
3:54 PM 73.0 °F - 37.9 °F 28% 29.82 in 10.0 mi WNW 16.1 mph 28.8 mph N/A   Clear
4:54 PM 73.0 °F - 34.0 °F 24% 29.81 in 10.0 mi WNW 19.6 mph 31.1 mph N/A   Clear
5:54 PM 71.1 °F - 30.9 °F 23% 29.83 in 10.0 mi WNW 19.6 mph 26.5 mph N/A   Clear
6:54 PM 68.0 °F - 30.0 °F 24% 29.86 in 10.0 mi NW 15.0 mph - N/A   Clear
7:54 PM 60.1 °F - 34.0 °F 38% 29.88 in 10.0 mi North 12.7 mph - N/A   Clear
8:54 PM 57.0 °F - 32.0 °F 39% 29.92 in 10.0 mi North 11.5 mph - N/A   Clear
9:54 PM 55.0 °F - 34.0 °F 45% 29.96 in 10.0 mi North 12.7 mph - N/A   Clear
10:54 PM 50.0 °F - 33.1 °F 52% 29.99 in 10.0 mi North 8.1 mph - N/A   Clear
11:54 PM 48.0 °F - 34.0 °F 58% 30.00 in 10.0 mi North 9.2 mph - N/A   Clear